Location: Bukovany
(49.8234°N, 14.6297°E)
Time: 17:34:54
(UTC+00:00)

Geosat - Pass Details

Date: 17 November 2025
Orbit: 758 x 760 km, 108.0° (Epoch: 09 December)

Event Time Altitude Azimuth Distance (km) Brightness Sun altitude
Exits shadow 18:04:11 54° 186° (S) 917 4.3 -27.0°
Maximum altitude 18:05:09 69° 242° (WSW) 816 4.2 -27.1°
Drops below altitude 10° 18:10:09 10° 326° (NW) 2,302 6.9 -27.9°
Sets 18:12:27 0° 329° (NNW) 3,232 7.7 -28.3°
